sat.trackr.live / text

‹ back to catalog

ZHONGXING-2C

NORAD 41021 · 2015-063A

PAYLOAD ACTIVE UNKNOWN

§ Identity

Operator
Country
PRC
Launch date
2015-11-03
Launch site
XICLF
Launch vehicle
Mass (kg)
RCS (m²)
75.46

Purposes: comms

External: N2YO · Heavens-Above · Gunter

§ Orbital elements

Epoch: 2026-05-24T19:40:45.488352Z

Period
1,436.16 min
Inclination
0.2148°
Eccentricity
0.0007559
Mean motion
1.00267451 rev/d
Perigee alt
35,755.9 km
Apogee alt
35,819.7 km
Semi-major
42,165.9 km
B*
0.0000e+0
RAAN
91.0070°
Arg perigee
100.9464°
Mean anomaly
89.0445°
Rev number
3,874

§ Raw data

ZHONGXING-2C1 41021U 15063A   26144.81997093 -.00000326  00000+0  00000+0 0  99962 41021   0.2148  91.0070 0007559 100.9464  89.0445  1.00267451 38740

JSON: /api/v1/satellites/41021 · /tle

For live sub-satellite position, see the globe view (requires WebGL).

§ Visibility from observer

Set your observer location to see the next 7 days of passes ≥ 10°. The values pass through the URL so the page stays shareable.

No JS? Fill the form by hand. The geolocation button needs JavaScript.